GW0935 Weather Reports


Display with metric or nautical units.
time (UTC)temp
F
wind
direction
speed
MPH
gust
MPH
rain 1hr
in
rain 24hr
in
rain mn
in
humidity
%
barometer
mb
20260902090355 58 176 3.0 5.0 0.04 0.04 0.04 96 1016.6
20260902090157 58 169 3.0 5.0 0.04 0.04 0.04 96 1016.7
20260902085958 58 160 2.0 5.0 0.04 0.04 0.04 96 1016.5
20260902085757 58 134 2.0 3.0 0.04 0.04 0.04 96 1016.5
20260902085555 58 160 1.0 3.0 0.04 0.04 0.04 96 1016.7
20260902085155 58 122 0.0 3.0 0.03 0.03 0.03 96 1016.7
20260902084958 58 154 0.0 3.0 0.03 0.03 0.03 96 1016.7
20260902084755 58 154 1.0 3.0 0.03 0.03 0.03 96 1016.6
20260902084557 58 121 1.0 3.0 0.03 0.03 0.03 96 1016.7
20260902084355 58 146 0.0 0.0 0.03 0.03 0.03 96 1016.7
20260902084157 58 129 0.0 0.0 0.03 0.03 0.03 96 1016.8
20260902083957 58 145 0.0 0.0 0.02 0.02 0.02 96 1016.8
20260902083757 58 115 0.0 0.0 0.02 0.02 0.02 96 1016.8
20260902083555 58 176 0.0 0.0 0.02 0.02 0.02 96 1016.8
20260902083356 58 143 0.0 0.0 0.02 0.02 0.02 96 1016.8
20260902083155 58 120 0.0 0.0 0.02 0.02 0.02 96 1016.8
20260902082555 58 151 0.0 0.0 0.02 0.02 0.02 95 1016.8
20260902082357 57 123 0.0 0.0 0.02 0.02 0.02 95 1016.9
20260902082156 57 123 0.0 0.0 0.02 0.02 0.02 95 1016.8
20260902081958 57 123 0.0 0.0 0.02 0.02 0.02 95 1016.9
20260902081755 57 143 0.0 0.0 0.02 0.02 0.02 95 1016.9
20260902081557 57 156 0.0 0.0 0.02 0.02 0.02 95 1016.9
20260902081355 57 156 0.0 0.0 0.01 0.01 0.01 95 1016.9
20260902081157 57 150 0.0 0.0 0.01 0.01 0.01 95 1016.9
20260902080956 57 79 0.0 0.0 0.01 0.01 0.01 95 1016.9
20260902080757 57 136 0.0 0.0 0.01 0.01 0.01 95 1016.9
20260902080556 57 142 0.0 0.0 0.00 0.00 0.00 95 1016.8
20260902080357 57 112 0.0 0.0 0.00 0.00 0.00 95 1016.8
20260902080155 57 124 0.0 0.0 0.00 0.00 0.00 95 1016.8
20260902075755 57 154 0.0 0.0 0.00 0.00 0.00 95 1016.7
20260902075555 57 135 0.0 0.0 0.00 0.00 0.00 95 1016.7
20260902075155 57 135 0.0 0.0 0.00 0.00 0.00 95 1016.7
20260902074956 57 170 0.0 0.0 0.00 0.00 0.00 95 1016.7
20260902074755 57 170 0.0 0.0 0.00 0.00 0.00 95 1016.7
20260902074555 57 111 0.0 0.0 0.00 0.00 0.00 95 1016.6
20260902074355 57 108 0.0 0.0 0.00 0.00 0.00 95 1016.5
20260902074155 57 106 0.0 0.0 0.00 0.00 0.00 95 1016.6
20260902073956 57 109 0.0 0.0 0.00 0.00 0.00 94 1016.6
20260902073755 57 141 0.0 0.0 0.00 0.00 0.00 94 1016.8
20260902073555 57 126 0.0 0.0 0.00 0.00 0.00 94 1016.8
20260902073355 57 175 0.0 0.0 0.00 0.00 0.00 94 1016.8
20260902073155 57 79 0.0 0.0 0.00 0.00 0.00 94 1016.8
20260902072956 57 106 0.0 0.0 0.00 0.00 0.00 95 1016.8
20260902072756 57 106 0.0 0.0 0.00 0.00 0.00 94 1016.7
20260902072556 57 115 0.0 0.0 0.00 0.00 0.00 94 1016.7
20260902072357 57 94 0.0 0.0 0.00 0.00 0.00 95 1016.7
20260902072157 56 120 0.0 0.0 0.00 0.00 0.00 95 1016.7
20260902071956 56 121 0.0 0.0 0.00 0.00 0.00 95 1016.8
20260902071757 56 114 0.0 0.0 0.00 0.00 0.00 95 1016.7
20260902071555 56 76 0.0 0.0 0.00 0.00 0.00 95 1016.7
20260902071357 56 114 0.0 0.0 0.00 0.00 0.00 95 1016.8
20260902071155 56 128 0.0 0.0 0.00 0.00 0.00 95 1016.7
20260902070755 56 115 0.0 0.0 0.00 0.00 0.00 95 1016.8
20260902070557 56 117 0.0 0.0 0.00 0.00 0.00 95 1016.8
20260902070355 56 117 0.0 0.0 0.00 0.00 0.00 95 1016.7
20260902070157 56 138 0.0 0.0 0.00 0.00 0.00 95 1016.7
20260902065957 56 138 0.0 0.0 0.00 0.00 0.00 95 1016.7
20260902065754 56 138 0.0 0.0 0.00 0.00 0.00 95 1016.7
20260902065554 56 138 0.0 0.0 0.00 0.00 0.00 95 1016.7
20260902065354 56 139 0.0 0.0 0.00 0.00 0.00 95 1016.8
20260902065154 56 118 0.0 0.0 0.00 0.00 0.00 95 1016.8
20260902064955 56 118 0.0 0.0 0.00 0.00 0.00 95 1016.8
20260902064754 56 110 0.0 0.0 0.00 0.00 0.00 95 1016.8
20260902064354 56 108 0.0 0.0 0.00 0.00 0.00 95 1016.7
20260902064154 56 108 0.0 0.0 0.00 0.00 0.00 95 1016.8
20260902063955 56 132 0.0 0.0 0.00 0.00 0.00 95 1016.7
20260902063754 56 127 0.0 0.0 0.00 0.00 0.00 95 1016.7
20260902063554 56 133 0.0 1.0 0.00 0.00 0.00 95 1016.7
20260902063354 56 133 0.0 1.0 0.00 0.00 0.00 95 1016.6
20260902063154 55 130 0.0 1.0 0.00 0.00 0.00 95 1016.7
20260902062955 55 136 0.0 1.0 0.00 0.00 0.00 95 1016.7
20260902062755 55 114 0.0 0.0 0.00 0.00 0.00 95 1016.7
20260902062554 55 114 0.0 0.0 0.00 0.00 0.00 95 1016.7
20260902062355 55 106 0.0 0.0 0.00 0.00 0.00 95 1016.7
20260902062156 55 106 0.0 0.0 0.00 0.00 0.00 95 1016.8
20260902061956 55 108 0.0 0.0 0.00 0.00 0.00 95 1016.9
20260902061754 55 108 0.0 0.0 0.00 0.00 0.00 95 1016.8
20260902061354 55 127 0.0 0.0 0.00 0.00 0.00 95 1016.8
20260902060956 55 127 0.0 0.0 0.00 0.00 0.00 95 1016.8
20260902060354 55 127 0.0 0.0 0.00 0.00 0.00 95 1016.9
20260902060156 55 127 0.0 0.0 0.00 0.00 0.00 95 1016.9
20260902055957 55 127 0.0 0.0 0.00 0.00 0.00 95 1016.8
20260902055754 55 127 0.0 0.0 0.00 0.00 0.00 95 1016.8
20260902055554 55 127 0.0 0.0 0.00 0.00 0.00 95 1016.8
20260902055354 55 102 0.0 0.0 0.00 0.00 0.00 95 1016.8
20260902055154 55 85 0.0 0.0 0.00 0.00 0.00 95 1016.8
20260902054954 55 86 0.0 0.0 0.00 0.00 0.00 95 1016.8
20260902054756 55 86 0.0 0.0 0.00 0.00 0.00 95 1016.8
20260902054554 55 90 0.0 0.0 0.00 0.00 0.00 95 1016.8
20260902054355 55 90 0.0 0.0 0.00 0.00 0.00 95 1016.7
20260902054154 55 90 0.0 0.0 0.00 0.00 0.00 95 1016.8
20260902053956 55 90 0.0 0.0 0.00 0.00 0.00 95 1016.8
20260902053754 55 110 0.0 0.0 0.00 0.00 0.00 95 1016.8
20260902053555 55 110 0.0 0.0 0.00 0.00 0.00 95 1016.8
20260902053155 55 110 0.0 0.0 0.00 0.00 0.00 95 1016.7
20260902052955 55 110 0.0 0.0 0.00 0.00 0.00 95 1016.8
20260902052756 55 110 0.0 0.0 0.00 0.00 0.00 95 1016.7
20260902052554 55 110 0.0 0.0 0.00 0.00 0.00 95 1016.8
20260902052356 55 110 0.0 0.0 0.00 0.00 0.00 95 1016.9
20260902052154 55 110 0.0 0.0 0.00 0.00 0.00 95 1016.9
20260902051954 55 110 0.0 0.0 0.00 0.00 0.00 95 1016.8
20260902051754 55 110 0.0 0.0 0.00 0.00 0.00 95 1016.8
20260902051554 55 110 0.0 0.0 0.00 0.00 0.00 95 1016.8
20260902051354 55 110 0.0 0.0 0.00 0.00 0.00 95 1016.8
20260902051156 55 110 0.0 0.0 0.00 0.00 0.00 95 1016.8
20260902050955 55 110 0.0 0.0 0.00 0.00 0.00 95 1016.8
20260902050755 55 110 0.0 0.0 0.00 0.00 0.00 95 1016.7
20260902050554 55 110 0.0 0.0 0.00 0.00 0.00 94 1016.7
20260902050355 55 110 0.0 0.0 0.00 0.00 0.00 94 1016.7
20260902050154 55 110 0.0 0.0 0.00 0.00 0.00 94 1016.7
20260902045959 55 110 0.0 0.0 0.00 0.00 0.00 94 1016.7
20260902045754 55 110 0.0 0.0 0.00 0.00 0.00 94 1016.7
20260902045556 55 110 0.0 0.0 0.00 0.00 0.00 94 1016.8
20260902045354 55 109 0.0 0.0 0.00 0.00 0.00 94 1016.8
20260902045155 55 110 0.0 0.0 0.00 0.00 0.00 94 1016.9
20260902044955 55 110 0.0 0.0 0.00 0.00 0.00 94 1016.9
20260902044756 55 110 0.0 0.0 0.00 0.00 0.00 94 1016.9
20260902044554 55 110 0.0 0.0 0.00 0.00 0.00 94 1016.8
20260902044154 55 110 0.0 0.0 0.00 0.00 0.00 94 1016.8
20260902043956 55 110 0.0 0.0 0.00 0.00 0.00 94 1017.0
20260902043754 55 110 0.0 0.0 0.00 0.00 0.00 94 1016.9
20260902043556 55 110 0.0 0.0 0.00 0.00 0.00 94 1016.9
20260902043156 55 110 0.0 0.0 0.00 0.00 0.00 94 1016.9
20260902042756 55 111 0.0 0.0 0.00 0.00 0.00 94 1016.7
20260902042554 55 112 0.0 0.0 0.00 0.00 0.00 94 1016.7
20260902042355 55 111 0.0 0.0 0.00 0.00 0.00 94 1016.7
20260902042154 55 121 0.0 0.0 0.00 0.00 0.00 94 1016.8
20260902041956 55 121 0.0 0.0 0.00 0.00 0.00 94 1016.7
20260902041754 55 121 0.0 0.0 0.00 0.00 0.00 94 1016.7
20260902041555 55 117 0.0 0.0 0.00 0.00 0.00 94 1016.6
20260902041353 55 117 0.0 0.0 0.00 0.00 0.00 94 1016.6
20260902041155 55 117 0.0 0.0 0.00 0.00 0.00 94 1016.6
20260902040955 55 117 0.0 0.0 0.00 0.00 0.00 94 1016.7
20260902040755 55 117 0.0 0.0 0.00 0.00 0.00 94 1016.7
20260902040554 55 117 0.0 0.0 0.00 0.00 0.00 94 1016.7
20260902040355 55 115 0.0 0.0 0.00 0.00 0.00 94 1016.7
20260902040154 55 115 0.0 0.0 0.00 0.00 0.00 94 1016.7
20260902035959 55 117 0.0 0.0 0.00 0.00 0.00 94 1016.9
20260902035754 55 117 0.0 0.0 0.00 0.00 0.00 94 1016.9
20260902035554 55 116 0.0 0.0 0.00 0.00 0.00 94 1016.9
20260902034954 55 116 0.0 0.0 0.00 0.00 0.00 94 1016.8
20260902034755 55 116 0.0 0.0 0.00 0.00 0.00 94 1016.9
20260902034555 55 116 0.0 0.0 0.00 0.00 0.00 94 1016.8
20260902034356 55 132 0.0 0.0 0.00 0.00 0.00 94 1016.9
20260902034154 55 132 0.0 0.0 0.00 0.00 0.00 94 1016.9
20260902033954 55 133 0.0 0.0 0.00 0.00 0.00 94 1016.7
20260902033754 55 133 0.0 0.0 0.00 0.00 0.00 94 1016.8
20260902033554 55 121 0.0 0.0 0.00 0.00 0.00 94 1016.9
20260902033354 55 96 0.0 0.0 0.00 0.00 0.00 94 1016.9
20260902033154 55 96 0.0 0.0 0.00 0.00 0.00 94 1016.9
20260902032955 55 96 0.0 0.0 0.00 0.00 0.00 94 1016.9
20260902032753 55 96 0.0 0.0 0.00 0.00 0.00 94 1016.8
20260902032554 55 96 0.0 0.0 0.00 0.00 0.00 94 1016.9
20260902032154 55 96 0.0 0.0 0.00 0.00 0.00 94 1017.0
20260902031954 55 95 0.0 0.0 0.00 0.00 0.00 94 1016.9
20260902031753 55 122 0.0 0.0 0.00 0.00 0.00 94 1017.0
20260902031554 55 122 0.0 0.0 0.00 0.00 0.00 94 1016.9
20260902031354 55 122 0.0 0.0 0.00 0.00 0.00 94 1016.9
20260902030955 55 122 0.0 0.0 0.00 0.00 0.00 94 1017.0
20260902030755 55 122 0.0 0.0 0.00 0.00 0.00 94 1017.0
20260902030554 55 122 0.0 0.0 0.00 0.00 0.00 94 1017.0
20260902030353 55 103 0.0 0.0 0.00 0.00 0.00 94 1017.1
20260902030153 55 131 0.0 0.0 0.00 0.00 0.00 94 1017.0
20260902025957 55 131 0.0 0.0 0.00 0.00 0.00 94 1017.0
20260902025553 55 131 0.0 0.0 0.00 0.00 0.00 94 1017.2
20260902025353 55 131 0.0 0.0 0.00 0.00 0.00 94 1017.1
20260902025154 55 117 0.0 0.0 0.00 0.00 0.00 94 1017.3
20260902024954 55 117 0.0 0.0 0.00 0.00 0.00 93 1017.1
20260902024753 55 117 0.0 0.0 0.00 0.00 0.00 93 1017.3
20260902024354 55 133 0.0 0.0 0.00 0.00 0.00 93 1017.3
20260902024154 55 128 0.0 0.0 0.00 0.00 0.00 93 1017.4
20260902023955 55 122 0.0 0.0 0.00 0.00 0.00 93 1017.3
20260902023754 55 120 0.0 0.0 0.00 0.00 0.00 93 1017.4
20260902023354 55 120 0.0 0.0 0.00 0.00 0.00 93 1017.4
20260902022955 55 113 0.0 0.0 0.00 0.00 0.00 93 1017.4
20260902022755 55 113 0.0 0.0 0.00 0.00 0.00 93 1017.4
20260902022355 55 117 0.0 0.0 0.00 0.00 0.00 93 1017.4
20260902022153 55 117 0.0 0.0 0.00 0.00 0.00 93 1017.5
20260902021956 55 117 0.0 0.0 0.00 0.00 0.00 93 1017.5
20260902021555 55 117 0.0 0.0 0.00 0.00 0.00 93 1017.4
20260902021354 56 117 0.0 0.0 0.00 0.00 0.00 93 1017.5
20260902021155 56 117 0.0 0.0 0.00 0.00 0.00 93 1017.5
20260902020755 56 118 0.0 0.0 0.00 0.00 0.00 92 1017.7
20260902020355 55 118 0.0 0.0 0.00 0.00 0.00 92 1017.6
20260902020154 55 118 0.0 0.0 0.00 0.00 0.00 92 1017.6
20260902015958 55 118 0.0 0.0 0.00 0.00 0.00 92 1017.6
20260902015755 55 117 0.0 0.0 0.00 0.00 0.00 92 1017.6
20260902015353 56 117 0.0 0.0 0.00 0.00 0.00 92 1017.6
20260902014954 56 117 0.0 0.0 0.00 0.00 0.00 92 1017.6
20260902014554 56 117 0.0 0.0 0.00 0.00 0.00 92 1017.5
20260902014354 56 117 0.0 0.0 0.00 0.00 0.00 92 1017.6
20260902013956 56 129 0.0 0.0 0.00 0.00 0.00 91 1017.6
20260902013556 56 129 0.0 0.0 0.00 0.00 0.00 91 1017.6
20260902013354 56 131 0.0 0.0 0.00 0.00 0.00 91 1017.5
20260902013155 56 131 0.0 0.0 0.00 0.00 0.00 91 1017.5
20260902012955 56 131 0.0 0.0 0.00 0.00 0.00 91 1017.5
20260902012755 56 131 0.0 0.0 0.00 0.00 0.00 91 1017.4
20260902012553 56 134 0.0 0.0 0.00 0.00 0.00 91 1017.4
20260902012355 56 134 0.0 0.0 0.00 0.00 0.00 91 1017.5
20260902012154 56 134 0.0 0.0 0.00 0.00 0.00 90 1017.4
20260902011753 56 134 0.0 0.0 0.00 0.00 0.00 90 1017.5
20260902011555 56 134 0.0 0.0 0.00 0.00 0.00 90 1017.5
20260902011353 56 134 0.0 0.0 0.00 0.00 0.00 90 1017.5
20260902011155 56 134 0.0 0.0 0.00 0.00 0.00 89 1017.5
20260902010955 56 134 0.0 0.0 0.00 0.00 0.00 89 1017.4
20260902010756 57 134 0.0 0.0 0.00 0.00 0.00 89 1017.5
20260902010554 57 134 0.0 0.0 0.00 0.00 0.00 89 1017.5
20260902010354 57 134 0.0 0.0 0.00 0.00 0.00 89 1017.5
20260902005957 57 134 0.0 0.0 0.00 0.00 0.00 89 1017.6
20260902005755 57 134 0.0 0.0 0.00 0.00 0.00 88 1017.6
20260902005553 57 134 0.0 0.0 0.00 0.00 0.00 88 1017.5
20260902005355 57 134 0.0 0.0 0.00 0.00 0.00 88 1017.6
20260902005154 58 135 0.0 0.0 0.00 0.00 0.00 88 1017.5
20260902004956 58 134 0.0 0.0 0.00 0.00 0.00 88 1017.6
20260902004753 58 135 0.0 0.0 0.00 0.00 0.00 87 1017.6
20260902004555 58 135 0.0 0.0 0.00 0.00 0.00 87 1017.6
20260902004354 58 134 0.0 0.0 0.00 0.00 0.00 87 1017.6
20260902003954 58 135 0.0 0.0 0.00 0.00 0.00 87 1017.6
20260902003755 58 135 0.0 0.0 0.00 0.00 0.00 87 1017.6
20260902003553 58 134 0.0 0.0 0.00 0.00 0.00 87 1017.7
20260902003154 58 135 0.0 0.0 0.00 0.00 0.00 87 1017.7
20260902002955 58 135 0.0 0.0 0.00 0.00 0.00 87 1017.7
20260902002754 58 135 0.0 0.0 0.00 0.00 0.00 87 1017.6
20260902002553 58 135 0.0 0.0 0.00 0.00 0.00 87 1017.6
20260902002354 58 135 0.0 0.0 0.00 0.00 0.00 86 1017.8
20260902001954 59 135 0.0 0.0 0.00 0.00 0.00 86 1017.6
20260902001754 59 135 0.0 0.0 0.00 0.00 0.00 86 1017.6
20260902001554 59 135 0.0 0.0 0.00 0.00 0.00 86 1017.6
20260902001353 59 132 0.0 0.0 0.00 0.00 0.00 86 1017.6
20260902001154 59 150 0.0 0.0 0.00 0.00 0.00 86 1017.6
20260902000956 59 150 0.0 0.0 0.00 0.00 0.00 86 1017.6
20260902000754 59 169 0.0 0.0 0.00 0.00 0.00 86 1017.7
20260902000354 59 139 0.0 0.0 0.00 0.00 0.00 86 1017.7
20260902000154 59 152 0.0 0.0 0.00 0.00 0.00 86 1017.7
20260901235956 59 152 0.0 0.0 0.00 0.00 0.00 86 1017.7
20260901235754 59 139 0.0 0.0 0.00 0.00 0.00 85 1017.7
20260901235553 59 139 0.0 0.0 0.00 0.00 0.00 85 1017.8
20260901235354 59 139 0.0 0.0 0.00 0.00 0.00 85 1017.8
20260901235153 59 153 0.0 0.0 0.00 0.00 0.00 85 1017.9
20260901235032 59 153 0.0 0.0 0.00 0.00 0.00 85 1017.9
20260901234752 59 153 0.0 0.0 0.00 0.00 0.00 85 1017.8
20260901234554 59 153 0.0 0.0 0.00 0.00 0.00 85 1017.8
20260901234353 59 153 0.0 0.0 0.00 0.00 0.00 85 1017.9
20260901234154 59 153 0.0 0.0 0.00 0.00 0.00 85 1017.9
20260901233954 59 153 0.0 0.0 0.00 0.00 0.00 85 1017.9
20260901233753 59 153 0.0 0.0 0.00 0.00 0.00 85 1017.9
20260901233553 59 153 0.0 0.0 0.00 0.00 0.00 85 1017.8
20260901233353 59 153 0.0 0.0 0.00 0.00 0.00 85 1017.9
20260901233153 59 150 0.0 0.0 0.00 0.00 0.00 84 1017.8
20260901232954 59 150 0.0 0.0 0.00 0.00 0.00 84 1017.8
20260901232153 59 156 0.0 1.0 0.00 0.00 0.00 84 1017.8
20260901231753 59 157 0.0 2.0 0.00 0.00 0.00 84 1017.7
20260901231553 59 148 0.0 2.0 0.00 0.00 0.00 84 1017.7
20260901231353 60 142 0.0 2.0 0.00 0.00 0.00 84 1017.8
20260901231153 60 153 0.0 4.0 0.00 0.00 0.00 84 1017.7
20260901230954 60 205 1.0 4.0 0.00 0.00 0.00 84 1017.8
20260901230753 59 173 0.0 4.0 0.00 0.00 0.00 84 1017.7
20260901230553 60 182 1.0 4.0 0.00 0.00 0.00 84 1017.7
20260901230353 60 160 1.0 4.0 0.00 0.00 0.00 84 1017.7
20260901230157 60 221 0.0 3.0 0.00 0.00 0.00 84 1017.7
20260901230001 59 149 0.0 3.0 0.00 0.00 0.00 84 1017.8
20260901225757 59 154 1.0 3.0 0.00 0.00 0.00 84 1017.8
20260901225557 59 136 1.0 3.0 0.00 0.00 0.00 84 1017.9
20260901225357 59 163 1.0 3.0 0.00 0.00 0.00 84 1017.8
20260901225157 59 241 0.0 3.0 0.00 0.00 0.00 84 1017.8
20260901224957 59 155 0.0 2.0 0.00 0.00 0.00 84 1017.8
20260901224758 59 154 0.0 1.0 0.00 0.00 0.00 84 1017.9
20260901224557 60 153 0.0 1.0 0.00 0.00 0.00 84 1017.8
20260901224357 60 163 0.0 2.0 0.00 0.00 0.00 84 1017.9
20260901224157 60 163 0.0 2.0 0.00 0.00 0.00 83 1017.9
20260901223958 60 149 0.0 2.0 0.00 0.00 0.00 83 1017.9
20260901223757 60 153 1.0 2.0 0.00 0.00 0.00 83 1017.9
20260901223557 60 160 1.0 2.0 0.00 0.00 0.00 83 1017.8
20260901223357 60 153 0.0 2.0 0.00 0.00 0.00 83 1017.8
20260901223157 60 154 0.0 2.0 0.00 0.00 0.00 83 1017.9
20260901222958 60 151 0.0 2.0 0.00 0.00 0.00 83 1017.9
20260901222757 60 154 0.0 2.0 0.00 0.00 0.00 83 1017.8
20260901222557 60 160 1.0 2.0 0.00 0.00 0.00 82 1017.8
20260901222357 60 143 1.0 2.0 0.00 0.00 0.00 82 1017.8
20260901222157 60 167 0.0 2.0 0.00 0.00 0.00 82 1017.8
20260901221757 60 156 0.0 1.0 0.00 0.00 0.00 82 1017.8
20260901221557 60 139 0.0 1.0 0.00 0.00 0.00 82 1017.8
20260901221357 60 155 0.0 1.0 0.00 0.00 0.00 82 1017.8
20260901221157 60 122 0.0 1.0 0.00 0.00 0.00 82 1017.8
20260901220958 60 151 0.0 1.0 0.00 0.00 0.00 82 1017.9
20260901220557 60 148 0.0 2.0 0.00 0.00 0.00 81 1017.9
20260901220400 60 146 0.0 2.0 0.00 0.00 0.00 81 1017.8
20260901220157 60 153 0.0 2.0 0.00 0.00 0.00 81 1017.9
20260901220003 60 159 0.0 2.0 0.00 0.00 0.00 81 1017.8
20260901215757 60 184 0.0 2.0 0.00 0.00 0.00 81 1017.9
20260901215358 60 193 0.0 2.0 0.00 0.00 0.00 81 1017.7
20260901215157 60 153 0.0 2.0 0.00 0.00 0.00 81 1017.8
20260901214959 60 219 0.0 0.0 0.00 0.00 0.00 81 1017.8
20260901214757 60 158 0.0 0.0 0.00 0.00 0.00 81 1017.8
20260901214559 60 165 0.0 0.0 0.00 0.00 0.00 81 1017.8
20260901214357 60 166 0.0 0.0 0.00 0.00 0.00 81 1017.8
20260901214200 60 158 0.0 1.0 0.00 0.00 0.00 81 1017.8
20260901213957 60 161 0.0 1.0 0.00 0.00 0.00 81 1017.9
20260901213758 60 153 0.0 2.0 0.00 0.00 0.00 81 1017.9
20260901213558 61 160 0.0 2.0 0.00 0.00 0.00 81 1017.8
20260901213359 61 160 0.0 2.0 0.00 0.00 0.00 81 1017.9
20260901213000 61 153 0.0 2.0 0.00 0.00 0.00 81 1017.9
20260901212757 61 146 0.0 0.0 0.00 0.00 0.00 81 1017.9
20260901212357 61 201 0.0 1.0 0.00 0.00 0.00 81 1017.8
20260901212158 61 202 0.0 1.0 0.00 0.00 0.00 81 1017.9
20260901211958 61 202 0.0 1.0 0.00 0.00 0.00 81 1017.9
20260901211757 61 213 0.0 1.0 0.00 0.00 0.00 80 1017.9
20260901211357 61 154 0.0 1.0 0.00 0.00 0.00 80 1017.9
20260901211157 61 154 0.0 1.0 0.00 0.00 0.00 80 1017.9
20260901211000 61 154 0.0 1.0 0.00 0.00 0.00 80 1017.9
20260901210757 61 164 0.0 4.0 0.00 0.00 0.00 80 1017.9
20260901205959 61 152 1.0 4.0 0.00 0.00 0.00 80 1017.9
20260901205756 61 186 0.0 2.0 0.00 0.00 0.00 80 1017.9
20260901205556 61 233 0.0 4.0 0.00 0.00 0.00 80 1018.0
20260901205356 61 231 0.0 4.0 0.00 0.00 0.00 80 1017.9
20260901204956 61 200 1.0 5.0 0.00 0.00 0.00 79 1017.9
20260901204756 61 141 0.0 5.0 0.00 0.00 0.00 80 1017.9
20260901204355 61 192 1.0 5.0 0.00 0.00 0.00 80 1017.9
20260901204156 62 151 1.0 5.0 0.00 0.00 0.00 80 1017.8
20260901203755 62 245 1.0 5.0 0.00 0.00 0.00 80 1017.9
20260901203555 62 212 1.0 4.0 0.00 0.00 0.00 80 1017.9
20260901203356 62 232 1.0 4.0 0.00 0.00 0.00 80 1017.9
20260901203156 62 190 1.0 4.0 0.00 0.00 0.00 80 1017.9
20260901202957 62 203 0.0 5.0 0.00 0.00 0.00 79 1017.9
20260901202556 62 215 1.0 5.0 0.00 0.00 0.00 79 1017.9
20260901202356 62 143 1.0 6.0 0.00 0.00 0.00 79 1017.9
20260901202156 62 238 2.0 6.0 0.00 0.00 0.00 79 1018.0
20260901201956 62 258 0.0 6.0 0.00 0.00 0.00 79 1018.0
20260901201756 62 139 2.0 6.0 0.00 0.00 0.00 79 1018.0
20260901201556 62 199 1.0 6.0 0.00 0.00 0.00 79 1017.9
20260901201157 62 266 2.0 4.0 0.00 0.00 0.00 78 1018.0
20260901200957 62 245 1.0 3.0 0.00 0.00 0.00 78 1018.0
20260901200755 62 210 1.0 3.0 0.00 0.00 0.00 78 1018.0
20260901200556 62 210 0.0 2.0 0.00 0.00 0.00 78 1018.0
20260901200356 62 224 1.0 4.0 0.00 0.00 0.00 78 1017.9
20260901200156 62 200 1.0 4.0 0.00 0.00 0.00 78 1018.0
20260901195959 62 178 1.0 4.0 0.00 0.00 0.00 77 1017.9
20260901195756 62 133 2.0 4.0 0.00 0.00 0.00 77 1017.9
20260901195556 62 253 1.0 5.0 0.00 0.00 0.00 77 1017.9
20260901195355 62 266 1.0 5.0 0.00 0.00 0.00 77 1018.0
20260901195156 62 192 1.0 5.0 0.00 0.00 0.00 77 1018.0
20260901194755 62 167 2.0 7.0 0.00 0.00 0.00 77 1017.9
20260901194556 62 219 0.0 7.0 0.00 0.00 0.00 77 1017.9
20260901194355 62 231 0.0 7.0 0.00 0.00 0.00 77 1017.9
20260901194156 62 203 1.0 7.0 0.00 0.00 0.00 77 1017.9
20260901193957 63 151 2.0 7.0 0.00 0.00 0.00 77 1017.9
20260901193755 63 276 2.0 6.0 0.00 0.00 0.00 77 1017.8
20260901193556 63 226 1.0 4.0 0.00 0.00 0.00 77 1017.9
20260901193356 63 237 1.0 3.0 0.00 0.00 0.00 77 1017.8
20260901192957 63 195 0.0 3.0 0.00 0.00 0.00 77 1017.9
20260901192756 63 135 0.0 3.0 0.00 0.00 0.00 77 1017.9
20260901192556 63 216 1.0 4.0 0.00 0.00 0.00 77 1017.9
20260901192355 63 160 2.0 6.0 0.00 0.00 0.00 77 1017.8
20260901192156 63 233 2.0 6.0 0.00 0.00 0.00 77 1017.9
20260901192000 63 234 1.0 6.0 0.00 0.00 0.00 77 1017.8
20260901191756 63 181 1.0 6.0 0.00 0.00 0.00 76 1017.9
20260901191557 63 304 1.0 5.0 0.00 0.00 0.00 76 1017.9
20260901191355 63 141 0.0 5.0 0.00 0.00 0.00 76 1017.8
20260901190956 63 9 1.0 4.0 0.00 0.00 0.00 76 1017.8
20260901190757 63 200 1.0 4.0 0.00 0.00 0.00 76 1017.7
20260901190357 63 219 1.0 4.0 0.00 0.00 0.00 76 1017.8
20260901190156 63 197 1.0 4.0 0.00 0.00 0.00 76 1017.7
20260901185755 64 246 1.0 4.0 0.00 0.00 0.00 76 1017.7
20260901185555 64 255 1.0 4.0 0.00 0.00 0.00 76 1017.6
20260901185356 64 299 1.0 3.0 0.00 0.00 0.00 76 1017.6
20260901185156 64 182 1.0 3.0 0.00 0.00 0.00 76 1017.6
20260901184956 64 191 0.0 3.0 0.00 0.00 0.00 75 1017.7
20260901184755 64 205 1.0 3.0 0.00 0.00 0.00 75 1017.7
20260901184356 64 256 1.0 3.0 0.00 0.00 0.00 75 1017.7
20260901184155 64 231 1.0 4.0 0.00 0.00 0.00 75 1017.7
20260901183957 64 259 1.0 4.0 0.00 0.00 0.00 75 1017.7
20260901183755 64 207 1.0 4.0 0.00 0.00 0.00 75 1017.7
20260901183556 64 202 1.0 4.0 0.00 0.00 0.00 75 1017.6
20260901183356 64 281 1.0 4.0 0.00 0.00 0.00 74 1017.6
20260901183156 64 207 2.0 4.0 0.00 0.00 0.00 74 1017.7
20260901182956 64 238 0.0 5.0 0.00 0.00 0.00 74 1017.7
20260901182755 64 293 1.0 6.0 0.00 0.00 0.00 74 1017.6
20260901182556 65 216 1.0 6.0 0.00 0.00 0.00 74 1017.6
20260901182357 65 193 2.0 6.0 0.00 0.00 0.00 74 1017.6
20260901182157 65 202 2.0 6.0 0.00 0.00 0.00 73 1017.6
20260901181958 65 167 2.0 5.0 0.00 0.00 0.00 73 1017.6
20260901181756 65 138 2.0 5.0 0.00 0.00 0.00 73 1017.6
20260901181557 65 219 2.0 4.0 0.00 0.00 0.00 73 1017.6
20260901181355 65 226 2.0 4.0 0.00 0.00 0.00 73 1017.6
20260901181157 65 281 2.0 4.0 0.00 0.00 0.00 73 1017.6
20260901180956 65 229 2.0 4.0 0.00 0.00 0.00 73 1017.5
20260901180757 65 202 2.0 6.0 0.00 0.00 0.00 73 1017.5
20260901180556 65 200 0.0 6.0 0.00 0.00 0.00 73 1017.6
20260901180357 65 229 1.0 6.0 0.00 0.00 0.00 73 1017.7
20260901180000 65 258 2.0 7.0 0.00 0.00 0.00 72 1017.7
20260901175755 65 248 2.0 7.0 0.00 0.00 0.00 72 1017.7
20260901175556 65 251 2.0 7.0 0.00 0.00 0.00 72 1017.7
20260901175355 65 200 1.0 7.0 0.00 0.00 0.00 72 1017.7
20260901175156 65 274 2.0 8.0 0.00 0.00 0.00 72 1017.7
20260901174956 65 157 3.0 8.0 0.00 0.00 0.00 71 1017.7
20260901174555 66 291 3.0 8.0 0.00 0.00 0.00 71 1017.8
20260901174356 66 247 3.0 6.0 0.00 0.00 0.00 71 1017.7
20260901174155 66 163 3.0 9.0 0.00 0.00 0.00 71 1017.8
20260901173957 66 236 2.0 9.0 0.00 0.00 0.00 71 1017.8
20260901173755 66 181 2.0 9.0 0.00 0.00 0.00 71 1017.7
20260901173555 66 27 2.0 9.0 0.00 0.00 0.00 71 1017.7
20260901173355 66 327 1.0 6.0 0.00 0.00 0.00 70 1017.7
20260901173156 66 217 2.0 8.0 0.00 0.00 0.00 70 1017.7
20260901172956 66 181 3.0 8.0 0.00 0.00 0.00 70 1017.7
20260901172555 66 150 1.0 8.0 0.00 0.00 0.00 70 1017.6
20260901172355 66 291 3.0 8.0 0.00 0.00 0.00 70 1017.6
20260901172155 66 303 2.0 8.0 0.00 0.00 0.00 70 1017.6
20260901171958 66 175 3.0 7.0 0.00 0.00 0.00 69 1017.7
20260901171757 66 115 3.0 7.0 0.00 0.00 0.00 69 1017.7
20260901171557 66 266 2.0 8.0 0.00 0.00 0.00 69 1017.8
20260901171355 66 86 2.0 8.0 0.00 0.00 0.00 69 1017.8
20260901171157 66 245 2.0 8.0 0.00 0.00 0.00 69 1017.7
20260901170957 66 248 3.0 8.0 0.00 0.00 0.00 69 1017.8
20260901170757 66 205 3.0 6.0 0.00 0.00 0.00 69 1017.8
20260901170555 66 212 3.0 8.0 0.00 0.00 0.00 69 1017.7
20260901170357 66 257 2.0 8.0 0.00 0.00 0.00 70 1017.7
20260901170155 66 195 2.0 8.0 0.00 0.00 0.00 70 1017.7
20260901170001 66 185 3.0 8.0 0.00 0.00 0.00 70 1017.7
20260901165755 66 88 2.0 7.0 0.00 0.01 0.00 70 1017.7
20260901165555 66 167 3.0 7.0 0.00 0.01 0.00 70 1017.7
20260901164956 66 159 1.0 7.0 0.00 0.01 0.00 70 1017.7
20260901164555 66 288 2.0 8.0 0.00 0.01 0.00 70 1017.7
20260901164355 66 153 2.0 8.0 0.00 0.01 0.00 70 1017.8
20260901164155 66 50 2.0 8.0 0.00 0.01 0.00 70 1017.7
20260901163956 66 296 2.0 8.0 0.00 0.01 0.00 70 1017.8
20260901163555 66 317 1.0 6.0 0.00 0.01 0.00 71 1017.6
20260901163357 66 271 1.0 6.0 0.00 0.01 0.00 71 1017.6
20260901163156 66 349 2.0 6.0 0.00 0.01 0.00 71 1017.7
20260901162956 66 165 1.0 5.0 0.00 0.01 0.00 71 1017.6
20260901162755 66 217 2.0 7.0 0.00 0.01 0.00 71 1017.7
20260901162555 66 116 2.0 7.0 0.00 0.01 0.00 71 1017.6
20260901162356 66 269 2.0 7.0 0.00 0.01 0.00 71 1017.7
20260901162155 66 219 2.0 7.0 0.00 0.01 0.00 71 1017.6
20260901161957 66 291 1.0 6.0 0.00 0.01 0.00 71 1017.7
20260901161755 66 168 3.0 6.0 0.00 0.01 0.00 71 1017.6
20260901161557 66 276 1.0 7.0 0.00 0.01 0.00 72 1017.7
20260901161357 66 226 2.0 7.0 0.00 0.01 0.00 71 1017.7
20260901160956 66 153 2.0 7.0 0.00 0.01 0.00 71 1017.7
20260901160757 66 258 3.0 7.0 0.00 0.01 0.00 71 1017.8
20260901160555 66 263 3.0 7.0 0.00 0.01 0.00 71 1017.7
20260901160357 66 296 4.0 7.0 0.00 0.01 0.00 71 1017.6
20260901160000 67 309 2.0 8.0 0.00 0.01 0.00 73 1017.8
20260901155755 67 120 2.0 8.0 0.00 0.01 0.00 73 1017.8
20260901155557 66 149 2.0 8.0 0.00 0.01 0.00 73 1017.8
20260901155355 67 206 4.0 8.0 0.00 0.01 0.00 73 1017.8
20260901155157 67 255 3.0 8.0 0.00 0.01 0.00 74 1017.8
20260901154758 67 248 3.0 7.0 0.00 0.01 0.00 75 1018.1
20260901154355 67 262 2.0 9.0 0.00 0.01 0.00 75 1017.9
20260901154155 67 283 3.0 9.0 0.00 0.01 0.00 74 1017.8
20260901153755 67 198 3.0 9.0 0.00 0.01 0.00 74 1017.7
20260901153555 67 276 3.0 7.0 0.00 0.01 0.00 74 1017.7
20260901153356 67 128 2.0 7.0 0.00 0.01 0.00 74 1017.7
20260901152956 67 259 1.0 5.0 0.00 0.01 0.00 74 1017.7
20260901152755 67 171 1.0 5.0 0.00 0.01 0.00 74 1017.7
20260901152555 67 226 1.0 6.0 0.00 0.01 0.00 74 1017.8
20260901152355 67 244 1.0 7.0 0.00 0.01 0.00 74 1017.8
20260901152155 67 292 2.0 8.0 0.00 0.01 0.00 74 1017.7
20260901151956 67 197 1.0 8.0 0.00 0.01 0.00 75 1017.7
20260901151756 67 219 3.0 8.0 0.00 0.01 0.00 74 1017.7
20260901151556 67 206 3.0 8.0 0.00 0.01 0.00 74 1017.8
20260901151157 67 214 1.0 7.0 0.00 0.01 0.00 75 1017.7
20260901150757 67 266 3.0 7.0 0.00 0.01 0.00 74 1017.8
20260901150555 67 215 2.0 7.0 0.00 0.01 0.00 74 1017.9
20260901150357 67 311 3.0 7.0 0.00 0.01 0.00 74 1017.9
20260901150155 67 221 2.0 7.0 0.00 0.01 0.00 74 1017.9
20260901145755 67 334 4.0 7.0 0.00 0.02 0.00 73 1017.8
20260901145157 67 68 2.0 6.0 0.00 0.02 0.00 73 1017.7
20260901144957 67 224 1.0 7.0 0.00 0.02 0.00 73 1017.7
20260901144758 67 134 3.0 7.0 0.00 0.02 0.00 72 1017.7
20260901144556 67 172 1.0 7.0 0.00 0.02 0.00 72 1017.7
20260901144357 67 316 2.0 7.0 0.00 0.02 0.00 72 1017.7
20260901144156 67 317 2.0 6.0 0.00 0.02 0.00 72 1017.6
20260901143957 67 115 1.0 6.0 0.00 0.02 0.00 72 1017.8
20260901143755 67 293 1.0 7.0 0.00 0.02 0.00 72 1017.7
20260901143158 66 169 3.0 7.0 0.00 0.02 0.00 71 1017.7
20260901142757 66 229 1.0 7.0 0.00 0.02 0.00 72 1017.8
20260901142555 66 211 1.0 7.0 0.00 0.02 0.00 72 1017.8
20260901142357 66 126 2.0 9.0 0.00 0.02 0.00 72 1017.7
20260901142156 66 145 2.0 9.0 0.00 0.02 0.00 72 1017.8
20260901141958 66 264 4.0 9.0 0.00 0.02 0.00 72 1017.8
20260901141757 66 225 3.0 9.0 0.00 0.02 0.00 72 1017.8
20260901141355 66 202 4.0 8.0 0.00 0.02 0.00 72 1017.8
20260901141157 66 292 3.0 7.0 0.00 0.02 0.00 71 1017.9
20260901140757 66 329 1.0 7.0 0.00 0.02 0.00 71 1017.8
20260901140555 66 247 2.0 9.0 0.00 0.02 0.00 71 1017.8
20260901140357 66 264 3.0 9.0 0.00 0.02 0.00 71 1017.9
20260901140000 67 163 2.0 9.0 0.00 0.02 0.00 71 1017.9
20260901135755 67 145 3.0 9.0 0.00 0.02 0.00 71 1017.9
20260901135557 67 278 2.0 7.0 0.00 0.02 0.00 71 1017.8
20260901135355 67 1 2.0 7.0 0.00 0.02 0.00 71 1017.9
20260901134956 67 325 2.0 9.0 0.00 0.02 0.00 71 1017.9
20260901134555 67 250 3.0 9.0 0.00 0.02 0.00 70 1017.8
20260901134357 67 237 4.0 9.0 0.00 0.02 0.00 70 1017.9
20260901134155 67 276 3.0 8.0 0.00 0.02 0.00 70 1017.9
20260901133958 67 316 4.0 8.0 0.00 0.02 0.00 69 1017.9
20260901133755 68 301 3.0 8.0 0.00 0.02 0.00 69 1017.9
20260901133556 68 299 1.0 7.0 0.00 0.02 0.00 70 1017.9
20260901133156 68 14 3.0 8.0 0.00 0.02 0.00 69 1017.8
20260901132956 68 212 1.0 8.0 0.00 0.02 0.00 70 1017.8
20260901132558 68 181 4.0 8.0 0.00 0.02 0.00 69 1017.8
20260901132357 68 299 2.0 8.0 0.00 0.02 0.00 68 1017.8
20260901132156 68 176 2.0 8.0 0.00 0.02 0.00 68 1017.9
20260901131958 69 281 3.0 11.0 0.00 0.02 0.00 67 1017.9
20260901131756 69 151 4.0 11.0 0.00 0.02 0.00 68 1017.9
20260901131356 69 11 4.0 11.0 0.00 0.02 0.00 68 1017.8
20260901130958 69 263 2.0 7.0 0.00 0.02 0.00 68 1017.7
20260901130355 68 255 2.0 7.0 0.00 0.02 0.00 67 1017.9
20260901130157 69 216 2.0 9.0 0.00 0.02 0.00 67 1017.9
20260901125755 69 219 2.0 9.0 0.00 0.02 0.00 67 1017.8
20260901125556 68 296 3.0 9.0 0.00 0.02 0.00 67 1017.7
20260901125156 68 233 4.0 9.0 0.00 0.02 0.00 66 1017.9
20260901124956 68 212 3.0 9.0 0.00 0.02 0.00 67 1017.9
20260901124758 68 98 3.0 9.0 0.00 0.02 0.00 67 1017.9
20260901124555 68 173 4.0 9.0 0.00 0.02 0.00 67 1017.9
20260901124356 67 282 4.0 9.0 0.00 0.02 0.00 68 1017.8
20260901124155 67 124 2.0 9.0 0.00 0.02 0.00 69 1017.9
20260901123956 67 137 4.0 9.0 0.00 0.02 0.00 69 1017.9
20260901123755 66 254 3.0 10.0 0.00 0.02 0.00 69 1017.9
20260901123556 66 269 5.0 10.0 0.00 0.02 0.00 69 1017.8
20260901123355 66 91 4.0 10.0 0.00 0.02 0.00 68 1017.9
20260901123155 67 194 4.0 10.0 0.00 0.02 0.00 68 1018.0
20260901122957 67 254 4.0 10.0 0.00 0.02 0.00 68 1018.0
20260901122755 67 339 3.0 7.0 0.00 0.02 0.00 67 1017.9
20260901122555 67 257 3.0 7.0 0.00 0.02 0.00 67 1017.9
20260901122355 67 245 3.0 7.0 0.00 0.02 0.00 67 1017.9
20260901122156 68 345 3.0 8.0 0.00 0.02 0.00 66 1017.9
20260901121956 68 269 3.0 8.0 0.00 0.02 0.00 66 1017.8
20260901121556 68 277 4.0 8.0 0.00 0.02 0.00 64 1017.9
20260901121155 69 221 1.0 6.0 0.00 0.02 0.00 65 1017.9
20260901120756 68 203 3.0 7.0 0.00 0.02 0.00 66 1018.0
20260901120557 68 245 2.0 7.0 0.00 0.02 0.00 67 1017.9
20260901120157 67 302 3.0 7.0 0.00 0.02 0.00 66 1018.0
20260901115958 67 148 3.0 7.0 0.00 0.02 0.00 68 1018.0
20260901115755 67 164 3.0 8.0 0.00 0.02 0.00 67 1018.0
20260901115555 67 82 2.0 8.0 0.00 0.02 0.00 68 1018.1
20260901115355 67 205 2.0 8.0 0.00 0.02 0.00 68 1018.0
20260901115155 67 158 4.0 8.0 0.00 0.02 0.00 68 1018.1
20260901114956 67 154 2.0 6.0 0.00 0.02 0.00 68 1018.1
20260901114755 67 311 2.0 6.0 0.00 0.02 0.00 69 1018.0
20260901114556 67 267 2.0 6.0 0.00 0.02 0.00 68 1018.0
20260901114355 67 248 3.0 10.0 0.00 0.02 0.00 68 1018.0
20260901114155 67 231 2.0 10.0 0.00 0.02 0.00 68 1018.0
20260901113956 67 254 2.0 10.0 0.00 0.02 0.00 68 1018.0
20260901113355 67 166 2.0 9.0 0.00 0.02 0.00 67 1018.0
20260901112957 66 165 3.0 8.0 0.00 0.02 0.00 68 1018.1
20260901112755 66 198 2.0 8.0 0.00 0.02 0.00 68 1018.0
20260901112357 67 276 4.0 9.0 0.00 0.02 0.00 67 1018.0
20260901112157 67 245 3.0 9.0 0.00 0.02 0.00 66 1018.0
20260901111757 67 142 2.0 9.0 0.00 0.02 0.00 67 1018.0
20260901111556 67 242 5.0 9.0 0.00 0.02 0.00 67 1018.1
20260901111357 67 268 3.0 9.0 0.00 0.02 0.00 67 1018.0
20260901111155 67 226 4.0 8.0 0.00 0.02 0.00 66 1018.0
20260901110958 67 279 4.0 8.0 0.00 0.02 0.00 67 1018.1
20260901110756 67 200 4.0 8.0 0.00 0.02 0.00 68 1017.9
20260901110556 67 280 3.0 8.0 0.00 0.02 0.00 68 1017.9
20260901110356 66 277 3.0 8.0 0.00 0.02 0.00 68 1018.0
20260901110157 66 259 3.0 10.0 0.00 0.02 0.00 68 1018.0
20260901105959 66 184 4.0 11.0 0.00 0.02 0.00 68 1018.1
20260901105555 66 327 3.0 11.0 0.00 0.02 0.00 67 1018.2
20260901105357 67 268 6.0 11.0 0.00 0.02 0.00 66 1018.1
20260901105156 67 262 4.0 9.0 0.00 0.02 0.00 67 1018.1
20260901104958 66 187 3.0 10.0 0.00 0.02 0.00 68 1018.1
20260901104755 66 121 3.0 10.0 0.00 0.02 0.00 68 1018.1
20260901104557 66 70 4.0 10.0 0.00 0.02 0.00 68 1018.1
20260901104356 66 278 4.0 11.0 0.00 0.02 0.00 67 1018.1
20260901104157 66 281 4.0 11.0 0.00 0.02 0.00 67 1018.1
20260901103755 66 300 5.0 11.0 0.00 0.02 0.00 66 1018.1
20260901103557 66 234 4.0 11.0 0.00 0.02 0.00 67 1018.0
20260901103355 66 208 3.0 11.0 0.00 0.02 0.00 67 1018.0
20260901103157 67 276 4.0 11.0 0.00 0.02 0.00 66 1018.0
20260901102957 67 224 3.0 9.0 0.00 0.02 0.00 68 1018.0
20260901102757 66 158 3.0 9.0 0.00 0.02 0.00 67 1018.0
20260901102555 66 210 4.0 9.0 0.00 0.02 0.00 67 1018.1
20260901102357 66 269 3.0 6.0 0.00 0.02 0.00 67 1018.0
20260901102155 66 205 2.0 6.0 0.00 0.02 0.00 68 1018.1
20260901101958 66 223 2.0 6.0 0.00 0.02 0.00 67 1018.1
20260901101756 66 297 2.0 6.0 0.00 0.02 0.00 68 1018.2
20260901101557 66 190 2.0 10.0 0.00 0.02 0.00 67 1018.1
20260901101157 65 219 3.0 11.0 0.00 0.02 0.00 67 1018.2
20260901100957 65 211 4.0 11.0 0.00 0.02 0.00 68 1018.2
20260901100556 66 24 4.0 11.0 0.00 0.02 0.00 67 1018.2
20260901100357 65 150 3.0 10.0 0.00 0.02 0.00 69 1018.4
20260901100156 65 202 3.0 8.0 0.00 0.02 0.00 69 1018.4
20260901100000 65 350 3.0 8.0 0.00 0.02 0.00 69 1018.2
20260901095755 65 162 3.0 8.0 0.00 0.06 0.00 70 1018.3
20260901095555 65 228 3.0 8.0 0.00 0.06 0.00 69 1018.3
20260901095156 65 245 3.0 7.0 0.00 0.06 0.00 70 1018.4
20260901094956 65 192 2.0 9.0 0.00 0.06 0.00 70 1018.4
20260901094756 65 139 4.0 9.0 0.00 0.06 0.00 70 1018.3
20260901094356 65 204 2.0 9.0 0.00 0.06 0.00 71 1018.3
20260901094156 65 182 4.0 9.0 0.00 0.06 0.00 71 1018.3
20260901093957 65 205 3.0 9.0 0.00 0.06 0.00 71 1018.4
20260901093757 65 172 4.0 9.0 0.00 0.06 0.00 71 1018.4
20260901093557 65 203 3.0 9.0 0.00 0.06 0.00 72 1018.4
20260901093355 64 127 3.0 9.0 0.00 0.06 0.00 71 1018.4
20260901093157 64 285 3.0 8.0 0.00 0.06 0.00 73 1018.4
20260901092956 64 226 3.0 8.0 0.00 0.06 0.00 73 1018.3
20260901092757 64 148 3.0 8.0 0.00 0.06 0.00 73 1018.3
20260901092555 64 258 2.0 8.0 0.00 0.06 0.00 74 1018.3
20260901092357 63 155 2.0 8.0 0.00 0.06 0.00 75 1018.3
20260901091756 63 278 3.0 11.0 0.00 0.06 0.00 75 1018.3
20260901091557 63 243 4.0 11.0 0.00 0.06 0.00 74 1018.4
20260901091355 63 245 2.0 11.0 0.00 0.06 0.00 76 1018.4
20260901091158 63 193 2.0 11.0 0.00 0.06 0.00 76 1018.3
20260901090957 63 220 3.0 11.0 0.00 0.06 0.00 75 1018.4
20260901090757 62 229 3.0 7.0 0.00 0.06 0.00 76 1018.3
20260901090556 62 150 3.0 7.0 0.00 0.06 0.00 76 1018.4